West Coast Vancouver Island South: Past 24 Hour Conditions

 

Bella Bella Airport

12:00 AM PDT 01 September 2014
This table is a summary of hourly weather conditions for the past 24 hours.
Date / Time
(PDT)
Wind(knots) Conditions Visibility(km) Pressure(kPa) Air tempC) Relative humidity(%) Dew pointC)
01 September 2014
0:00 S 10 gust 15 Light Rain 5 101.4 13 95 12
31 August 2014
23:00 SSE 8 Light Rain 6 101.4 13 97 12
22:00 SSE 9 Light Rain 8 101.3 13 92 12
21:00 SSE 8 Light Rain 16 101.4 13 96 12
20:00 SSE 10 Light Rain 5 101.4 13 96 12
19:00 SSE 6 Light Rain 5 101.5 13 97 13
18:00 ESE 6 Light Rain 6 101.5 13 97 13
17:00 SSE 6 Light Rain 16 101.5 14 94 13
16:00 S 6 Light Rain 11 101.5 15 91 13
15:00 S 7 Light Rain 16 101.5 15 86 13
14:00 S 9 Mostly Cloudy 16 101.6 16 88 14
13:00 SSE 5 Cloudy 16 101.6 15 94 14
12:00 SSE 4 Light Rain 15 101.6 14 96 13
11:00 S 3 Light Rain 13 101.6 14 92 13
10:00 SSE 7 Cloudy 16 101.6 14 93 13
9:00 SE 5 Mostly Cloudy 16 101.6 14 96 13
8:00 SSE 3 Cloudy 16 101.6 13 98 13
7:00 SE 4 Cloudy 16 101.6 13 98 13
6:00 S 4 Mostly Cloudy 15 101.6 13 98 13
5:00 SE 5 Light Rain 13 101.6 13 98 13
4:00 S 5 Partly Cloudy 13 101.6 13 98 13
3:00 S 3 Mostly Cloudy 13 101.5 13 97 13
2:00 S 5 Mostly Cloudy 16 101.5 14 97 13
1:00 SSW 3 Mainly Clear 16 101.5 14 96 13
0:00 S 4 Cloudy 16 101.5 14 97 13
 
Map of Pacific - South Coast marine weather areas Tsawwassen Ferry Terminal South Nomad - 46036 Sentry Shoal - 46131 South Brooks - 46132 Halibut Bank - 46146 South Moresby - 46147 South Hecate Strait - 46185 West Sea Otter - 46204 La Perouse Bank - 46206 East Dellwood - 46207 Discovery Island Esquimalt Harbour Kelp Reefs Malahat Race Rocks Lightstation Saturna Island Sheringham Point University of Victoria Victoria Gonzales Victoria Int'l Airport Ballenas Islands Campbell River Airport Comox Airport Entrance Island Fanny Island Nanaimo Airport Port Hardy Airport Sisters Islets Estevan Point Sartine Island Solander Island Tofino Airport Grief Point Powell River Airport Sechelt Cape St.James Bella Bella Airport Bella Coola Airport Cathedral Point Herbert Island Point Atkinson Sand Heads Lightstation Vancouver Harbour Vancouver Int'l Airport West Vancouver Port Alberni Howe Sound - Pam Rocks Squamish Airport